Погода в Самарканде

Погода в Самарканде : погода сейчас, прогноз погоды и архив. Всё, что Вы хотите узнать о погоде в Самарканде!

Поиск расширенной информации на нашем сайте:

Другие новости

Новости СМИ2

Главная страница сайта

Новости сайта

03.07.2017

Напоминаем, что на нашем специализированном сайте Метеоцентр.Азия вы можете получить высокодетализированные автоматические прогнозы погоды по пунктам России, СНГ и мира в авиационном формате (включающие направление и скорость ветра, видимость, явления погоды, количество и форму облачности, нижнюю и верхнюю границу облачности).


Погода в Самарканде - сегодня

Время (UTC), дата Ветер
(°,м/с) 
Видим.   Явления Облачность Т
(°С)
Тd
(°С)
f(%) Тe
(°С)
Pmin
(гПа)
dP
(гПа)
Po
(мм)
O2
(г/м3)
Тmin Tmax R s Состояние
почвы
18 17.11.17 360 (С) н/о    ясно 
+3.7 +1.4 85 +5  1028.3  -0.4  706  280    +13.5       
21 17.11.17 тихо ()   н/о    ясно 
+1.5 +0.4 92 +2  1028.4  0.7  706  283           
00 18.11.17 020 (С) н/о    ясно 
+1.1 -0.6 88 +2  1028  -0.4  705  283    +10.6       
03 18.11.17 020 (С) 20000 м    3/0 верхняя 
[Ci fib]
+0.9 -0.8 88 +2  1030.1  1.8  707  284           
06 18.11.17 110 (В) 20000 м    3/0 верхняя 
[Ci fib]
+9.3 -2.5 43 +10  1028.8  1.3  708  276  +0.5         
09 18.11.17 090 (В) 20000 м    8/4 1000 м верхняя 
[Cu hum|Ci]
+11.8 +0.2 45 +12  1027.8  -0.2  707  273           
12 18.11.17 090 (В) 20000 м    3/3 1000 м 
[Cu hum]
+9.9 -0.9 47 +9  1029.5  1.1  708  275           
15 18.11.17 тихо ()   н/о    1/0 средняя 
[Ac lent]
+4.8 +0.1 72 +5  1032.8  1.4  709  281    +12.2       
18 18.11.17 тихо ()   н/о    ясно 
+1.9 -0.3 85 +2  1034.3  0.6  710  284    +12.2       
21 18.11.17 270 (З) н/о    ясно 
+3.1 -1.7 71 +4  1034.8  0.7  710  283           
00 19.11.17 200 (Ю) н/о    ясно 
+1.2 -1.8 80 +2  1035.4  710  285           
03 19.11.17 270 (З) 20000 м    10/10 1000 м 
[Sc]
-0.5 -1.7 92 1036.3  0.3  710  287           
06 19.11.17 250 (З) 20000 м    ясно 
+6 +0.3 67 +7  1032.7  -1.3  710  280  -0.5         
09 19.11.17 320 (СЗ) 20000 м    ясно 
+11.7 +1.3 49 +13  1029  -1.7  708  273           
12 19.11.17 090 (В) 20000 м    ясно 
+10.1 +1.1 54 +11  1028.7  -0.8  708  275           
15 19.11.17 290 (З) н/о    ясно 
+3.3 -0.2 78 +3  1030.3  -0.5  707  281    +12.2       
18 19.11.17 320 (СЗ) н/о    ясно 
+0.7 -0.4 92 1030.4  -0.6  707  284    +12.2       
21 19.11.17 090 (В) н/о    ясно 
-0.3 -0.9 96 1029.5  -1.2  706  285           
00 20.11.17 090 (В) н/о    ясно 
-0.8 -2.3 90 1029.3  -0.4  706  285           
03 20.11.17 090 (В) 20000 м    ясно 
-0.6 -3.4 81 1029.8  0.5  706  285  -0.9        сухая 
06 20.11.17 110 (В) 20000 м    ясно 
+9.4 -2.5 43 +10  1026.6  0.1  706  275  -0.9         
09 20.11.17 110 (В) 20000 м    ясно 
+15.2 -4.7 25 +17  1023.3  -1.5  705  269           
12 20.11.17 110 (В) 20000 м    ясно 
+13.4 -2.2 34 +15  1023.2  -0.5  705  271           
15 20.11.17 290 (З) н/о    ясно 
+5.5 +0 68 +5  1026.6  0.9  705  278    +16.3       
18 20.11.17 320 (СЗ) н/о    ясно 
+3.3 -0.8 74 +3  1027.2  -0.1  705  281    +16.3       
Время (UTC), дата Ветер
(°,м/с) 
Видим.   Явления Облачность Т
(°С)
Тd
(°С)
f(%) Тe
(°С)
Pmin
(гПа)
dP
(гПа)
Po
(мм)
O2
(г/м3)
Тmin Tmax R s Состояние
почвы

Для получения пояснительной информации подведите курсор к названию столбца.

ПОГОДА в Самарканде - архив

Всё, что Вы хотите узнать о погоде в Самарканде - удобно и подробно!

Выберите нужную дату (начиная с 1 января 2015* года) и нажмите кнопку "Найти".
Будут отображены архивные сводки погоды по пункту Самарканд, начиная с указанной даты.


Отображать данные в формате CSV (для использования в таблицах Excel)


Внимание! Наш архив погоды предназначен исключительно для личного некоммерческого использования в познавательных целях. Если Вам необходимы официальные справки о состоянии погоды (для производственных, юридических, коммерческих и т.п. целей), обращайтесь в органы Росгидромета.

*Примечание: данная дата относится к архиву по метеостанциям СССР (Россия, СНГ, Балтия).
Архив по метеостанциям Зарубежной Европы и Азии (кроме Китая) хранится 10 дней, по другим регионам земного шара (Китай, Африка, Америка, Австралия, Океания) - 1 день.

Самарканд - район местоположения метеостанции


Название, широта, долгота, высота метеостанции:
Самарканд (город) 39.6°ш. 66.9°д. 724 м над ур. моря [Узбекистан]

Дополнительная информация

В oтличие oт бoльшинства пoгoдных сайтoв мы публикуем пoдрoбную метеoинфoрмацию в детальнoм прoфессиoнальнoм фoрмате.

Характеристики температуры и влажнoсти вoздуха измеряются на высoте 2 м в тени вдали oт зданий и деревьев.
Скoрoсть ветра измеряется на высoте 10 м (на урoвне рoста челoвека скoрoсть ветра ниже в 1.5-2 раза). Если метеoстанция нахoдится в гoрoде или в лесу, тo скoрoсть ветра занижена на 2-4 м/с пo сравнению с oткрытым местoм. Скoрoсть ветра над акватoриями крупных рек и oзёр, а также на вершинах хoлмoв на 2-5 м/с выше, чем в oбычных услoвиях.
Атмoсфернoе давление в разных тoчках местнoсти мoжет значительнo oтличаться oт давления на метеoстанции, в зависимoсти oт услoвий рельефа (при пoдъёме на 10 м давление пoнижается примернo на 1 мм рт.ст.).